Weather Roundup
Issued by NWS Chicago, IL

Home | Current Version | Previous Version | Graphics & Text | Print | Product List | Glossary On
Versions: 1 2 3 4 5 6 7 8 9 10 11 12 13 14 15 16 17 18 19 20 21 22 23 24 25 26 27 28 29 30 31 32 33 34 35 36 37 38 39 40 41 42 43 44 45 46 47 48 49 50
000
NZUS59 KLOT 020008
HRRLOT

CHICAGO AREA WEATHER ROUNDUP
NATIONAL WEATHER SERVICE CHICAGO/ROMEOVILLE IL
700 PM CDT MON JUN 01 2015

NOTE: "FAIR" INDICATES FEW OR NO CLOUDS BELOW 12,000 FEET WITH NO
SIGNIFICANT WEATHER AND/OR OBSTRUCTIONS TO VISIBILITY.

* THESE STATIONS ARE NOT UNDER NWS QUALITY CONTROL. THEY ALSO MAY NOT
  REPORT WEATHER SUCH AS PRECIPITATION OR FOG.

ILZ005-006-012>014-019>023-020100-
NORTHEAST ILLINOIS

CITY           SKY/WX    TMP DP  RH WIND       PRES   REMARKS
OHARE          MOSUNNY   56  34  43 NE13      30.21R
6HR MIN TEMP:  56; 6HR MAX TEMP:  60;

MIDWAY         MOSUNNY   58  35  42 NE16      30.20R
6HR MIN TEMP:  58; 6HR MAX TEMP:  62;

AURORA         SUNNY     62  42  47 E10       30.20R
6HR MIN TEMP:  61; 6HR MAX TEMP:  66;

LANSING*       SUNNY     55  35  47 NE9       30.21R
JOLIET*        SUNNY     62  46  57 NE9       30.19R
WAUKEGAN       SUNNY     52  34  50 N13G18    30.21S
6HR MIN TEMP:  52; 6HR MAX TEMP:  56;

DUPAGE AIRPORT SUNNY     59  40  49 NE12      30.20R
6HR MIN TEMP:  59; 6HR MAX TEMP:  63;

WHEELING       SUNNY     54  34  46 NE10      30.23R
6HR MIN TEMP:  54; 6HR MAX TEMP:  58;

KANKAKEE*      SUNNY     60  49  66 NE9       30.18R
MORRIS*        SUNNY     63  47  55 E6        30.17R
LEWIS AIRPORT* SUNNY     59  42  52 E7        30.19S
NORTHERLY IS     N/A     51  39  63 N12         N/A
$$

WIZ051-052-058>065-066-070>072-020100-
SOUTHEAST WISCONSIN

CITY           SKY/WX    TMP DP  RH WIND       PRES   REMARKS
MILWAUKEE      MOSUNNY   53  33  46 N13       30.23S
6HR MIN TEMP:  52; 6HR MAX TEMP:  56;

KENOSHA*       SUNNY     55  34  45 NE12      30.22S
RACINE*        SUNNY     52  35  52 N12       30.25R
BURLINGTON     SUNNY     56  33  40 NE8       30.22S
WAUKESHA       SUNNY     55  32  41 E8        30.23S
WEST BEND      SUNNY     59  34  38 E8        30.23S
$$

INZ001>003-010>013-019-020-020100-
NORTHWEST INDIANA

CITY           SKY/WX    TMP DP  RH WIND       PRES   REMARKS
GARY*          SUNNY     54  39  58 N12       30.22R
MICHIGAN CITY* NOT AVBL
RENSSELAER*    NOT AVBL
VALPARAISO     SUNNY     55  40  56 N9        30.19R
$$

LMZ740>746-020100-
SOUTHERN LAKE MICHIGAN

STATION/POSITION TIME  SKY/WX   TEMP WIND        PRES    VSBY
                                AIR  DIR/SP/G
                 (UTC)          (F)  (DEG/KT/KT) (MB)    (MI)
HARRISON CRIB    2300            49  350/ 13/ 15   N/A
BURNHAM HARBOR   0000            51  350/  9/ 14   N/A
CALUMET HARBOR   2300            52  360/ 11/ 13   N/A
BURNS HARBOR     2300                 30/ 13/ 17 1023.0F
MICHIGAN CITY    2300            48  360/ 13/ 15   N/A
$$

ABBREVIATIONS USED IN REMARKS
   TC - TEMPERATURE IN CELSIUS
  WCI - WIND CHILL INDEX
   HX - HEAT INDEX
  VSB - VISIBILITY
$$



USA.gov is the U.S. government's official web portal to all federal, state and local government web resources and services.